Miscellaneous Local Product
Issued by NWS North Platte, NE

Home | Current Version | Previous Version | Text Only | Print | Product List | Glossary On
Versions: 1 2 3 4 5 6 7 8 9 10 11 12 13 14 15 16 17 18 19 20 21 22 23 24 25 26 27 28 29 30 31 32 33 34 35 36 37 38 39 40 41 42 43 44 45 46 47 48 49 50
000
AXUS43 KLBF 252010
MISLBF


WESTERN AND NORTH CENTRAL NEBRASKA HOURLY WEATHER ROUNDUP
NATIONAL WEATHER SERVICE NORTH PLATTE NE
300 PM CDT SUN JUN 25 2017

NOTE: "FAIR" INDICATES FEW OR NO CLOUDS BELOW 12,000 FEET WITH NO
SIGNIFICANT WEATHER AND/OR OBSTRUCTIONS TO VISIBILITY.

NOTE: STATIONS NOT REPORTING VARIABLES SUCH AS SKY/WEATHER OR
PRESSURE ARE PROVIDED BY RAWS AND APRS NETWORKS AND ARE NOT UNDER
NATIONAL WEATHER SERVICE QUALITY CONTROL.

...OBSERVATIONS IN AND NEAR THE EASTERN PANHANDLE OF NEBRASKA...

CITY           SKY/WX    TMP DP  RH WIND       PRES   REMARKS
PINE RIDGE     MOSUNNY   75  42  30 MISG      30.26F
GORDON         FAIR      75  39  27 NW10      30.27F
CHADRON        MOSUNNY   76  39  26 SW3       30.25F
ALLIANCE       SUNNY     76  38  25 S9        30.28F
SIDNEY         SUNNY     72  44  36 S13G20    30.34F
CRESCENT LAKE    N/A     77  43  29 SE6         N/A
$$

...OBSERVATIONS IN NORTHERN NEBRASKA AND FAR SOUTHERN SOUTH DAKOTA...

CITY           SKY/WX    TMP DP  RH WIND       PRES   REMARKS
WINNER         FAIR      80  34  19 VRB5      30.25F
VALENTINE      MOSUNNY   77  29  17 E3        30.27F
THEDFORD       SUNNY     76  37  23 SW6       30.29F
AINSWORTH      SUNNY     73  37  26 W7        30.29F
O`NEILL        SUNNY     73  36  25 W5        30.29F
ORD            SUNNY     76  29  17 VRB3      30.27F
BROKEN BOW     SUNNY     75  39  27 CALM      30.29F
VALENTINE NWR    N/A     74  36  24 SE6         N/A
HALSEY           N/A     77  35  21 E5G14       N/A
BUTTE            N/A     71  37  29 E9          N/A
CHAMBERS         N/A     78  43  28 CALM        N/A
EWING            N/A     73  43  33 N3          N/A
$$

...OBSERVATIONS IN SOUTHWEST NEBRASKA AND FAR NORTHEAST COLORADO...

CITY           SKY/WX    TMP DP  RH WIND       PRES   REMARKS
WRAY           CLOUDY    63  52  67 E7        30.34F
IMPERIAL       PTSUNNY   67  46  47 S12       30.33S
OGALLALA       SUNNY     78  41  27 S9        30.30F
NORTH PLATTE   SUNNY     76  45  33 SE8       30.29F
MCCOOK         PTSUNNY   70  45  40 SE9       30.33R
LEXINGTON      SUNNY     74  40  28 S13       30.31F
STAPLETON        N/A     75  42  31 CALM        N/A
GOTHENBURG       N/A     71  40  32 E6          N/A
CALLAWAY         N/A     74  45  35 CALM        N/A
$$

...OBSERVATIONS IN CENTRAL LINCOLN COUNTY AREA...

CITY           SKY/WX    TMP DP  RH WIND       PRES   REMARKS
N.P. AIRPORT   SUNNY     76  45  33 SE8       30.29F
N.P. DOWNTOWN    N/A     74  47  38 E5G13       N/A
N.P. SOUTHEAST   N/A     76  47  35 CALM        N/A
N.P. HILLCREST   N/A     74  46  36 MISG        N/A
$$

...SOME OBSERVATIONS FROM AROUND THE REGION...

CITY           SKY/WX    TMP DP  RH WIND       PRES   REMARKS
DENVER         MOSUNNY   66  50  56 N7        30.34F
LIMON          MOSUNNY   76  52  43 SE17G24   30.31F
ASPEN          SUNNY     78  26  14 N8G21     30.37F
LARAMIE        SUNNY     74  34  23 N12G22    30.37F
CASPER         SUNNY     75  32  20 CALM      30.31F
CHEYENNE       MOSUNNY   66  47  50 S7G16     30.37F
SCOTTSBLUFF    SUNNY     77  43  29 SE8G20    30.29F
GRAND ISLAND   SUNNY     75  38  26 CALM      30.30F
OMAHA          MOSUNNY   75  42  30 N12       30.26F
SIOUX FALLS    MOSUNNY   70  47  43 N18G24    30.25F
PIERRE         MOSUNNY   74  34  23 MISG      30.21F
RAPID CITY     MOSUNNY   75  36  24 VRB6      30.25F
BISMARCK       MOSUNNY   66  49  54 W12       30.25F
KANSAS CITY    CLOUDY    71  46  40 NW8       30.28F
HILL CITY      CLOUDY    63  56  78 E10       30.34F
WICHITA        CLOUDY    79  59  50 W5        30.24F
DODGE CITY     HVY RAIN  61  60  97 NE17G28   30.35R FOG
OKLAHOMA CITY  CLOUDY    85  46  25 SE10G18   30.22F
DALLAS         MOSUNNY   86  64  47 E9G16     30.17F
AMARILLO       MOSUNNY   77  61  57 SE12G18   30.28F
$$




USA.gov is the U.S. government's official web portal to all federal, state and local government web resources and services.